Location: Unspecified
(49.9820°N, 20.4363°E)
Time: 04:56:36
(UTC+02:00)

Vanguard 3 - Pass Details

Date: 19 May 2026
Orbit: 507 x 3204 km, 33.3° (Epoch: 6 June)

Event Time Altitude Azimuth Distance (km) Brightness Sun altitude
Rises 17:44:40 0° 270° (W) 7,097 13.4 23.0°
Reaches altitude 10° 17:50:05 10° 263° (W) 6,128 13.5 22.2°
Maximum altitude 18:05:51 34° 209° (SSW) 4,092 11.2 19.7°
Drops below altitude 10° 18:18:20 10° 152° (SSE) 4,835 10.8 17.7°
Sets 18:22:02 0° 143° (SE) 5,485 11.0 17.1°
